Regional Weather Roundup
Issued by NWS

Home | Current Version | Previous Version | Text Only | Print | Product List | Glossary On
Versions: 1 2 3 4 5 6 7 8 9 10 11 12 13 14 15 16 17 18 19 20 21 22 23 24 25 26 27 28 29 30 31 32 33 34 35 36 37 38 39 40 41 42 43 44 45 46 47 48 49 50
000
ASUS43 KOAX 251310
RWRNE

WEATHER ROUNDUP FOR NEBRASKA
NATIONAL WEATHER SERVICE OMAHA NE
800 AM CDT FRI MAY 25 2018

NOTES: SATELLITE DATA IS BEING USED TO AUGMENT CLOUD COVER ABOVE
       12000 FEET.
       "FAIR" INDICATES FEW OR NO CLOUDS BELOW 12,000 FEET WITH NO
       SIGNIFICANT WEATHER AND/OR OBSTRUCTIONS TO VISIBILITY.


NEZ001>004-019>022-054>056-251400-
NEBRASKA PANHANDLE

CITY           SKY/WX    TMP DP  RH WIND       PRES   REMARKS
SCOTTSBLUFF    SUNNY     56  54  93 NW5       30.02S
ALLIANCE       SUNNY     55  53  93 W7        29.99R
CHADRON        SUNNY     60  56  86 SW5       29.96S
GORDON         FAIR      60  54  80 CALM      29.96S
KIMBALL        SUNNY     57  47  69 W7        30.08R
SIDNEY         SUNNY     58  49  72 NW8       30.04R
$$

NEZ057>060-069>072-079>082-251400-
SOUTHWEST NEBRASKA

CITY           SKY/WX    TMP DP  RH WIND       PRES   REMARKS
NORTH PLATTE   SUNNY     66  55  67 NW7       29.96R
IMPERIAL       SUNNY     64  51  62 W8        29.99S
LEXINGTON      SUNNY     66  56  71 NW5       29.94S
MCCOOK         SUNNY     62  55  77 CALM      29.96S
OGALLALA       SUNNY     61  57  87 W5        29.99S
$$

NEZ005>010-023>029-035>040-094-251400-
NORTH CENTRAL NEBRASKA

CITY           SKY/WX    TMP DP  RH WIND       PRES   REMARKS
VALENTINE      SUNNY     64  59  83 SW3       29.90S
AINSWORTH      SUNNY     69  60  73 W8        29.91R
BROKEN BOW     SUNNY     68  53  58 W10G21    29.92R
O`NEILL        SUNNY     71  65  83 W6        29.88S
ORD            SUNNY     66  60  81 CALM      29.89R
THEDFORD       SUNNY     66  58  75 CALM      29.94S
$$

NEZ041-046>049-061>064-073>077-083>087-251400-
SOUTH CENTRAL NEBRASKA

CITY           SKY/WX    TMP DP  RH WIND       PRES   REMARKS
GRAND ISLAND   SUNNY     69  55  60 SW9       29.91S
AURORA         SUNNY     70  55  59 W12       29.90S
HASTINGS       SUNNY     68  55  63 W14       29.92S
HEBRON         SUNNY     71  58  63 W8        29.90R
HOLDREGE       SUNNY     67  53  62 W6        29.93S
KEARNEY        SUNNY     67  53  61 W9        29.92F
YORK           SUNNY     68  64  88 W8        29.90S
$$

NEZ011>018-030>034-042>045-251400-
NORTHEAST NEBRASKA

CITY           SKY/WX    TMP DP  RH WIND       PRES   REMARKS
NORFOLK        MOSUNNY   70  62  76 W7        29.84F
ALBION         SUNNY     68  63  84 CALM      29.89S
BLAIR          MOSUNNY   67  64  89 S8        29.88S
COLUMBUS       SUNNY     71  63  75 W13       29.88S
FREMONT        CLOUDY    70  64  81 S5        29.87S
TEKAMAH        MOSUNNY   68  64  87 S8        29.86R
WAYNE          SUNNY     70  69  97 SW6       29.85S
$$

NEZ050>053-065>068-078-088>093-251400-
SOUTHEAST NEBRASKA

CITY           SKY/WX    TMP DP  RH WIND       PRES   REMARKS
LINCOLN        SUNNY     69  63  81 CALM      29.89R
OMAHA EPPLEY   PTSUNNY   70  64  81 S8        29.87R
BEATRICE       MOSUNNY   68  64  89 S5        29.89R
FALLS CITY     CLOUDY    70  65  84 S12       29.89R
NEBRASKA CITY  CLOUDY    69  69  99 S8        29.89R
PLATTSMOUTH    MOSUNNY   68  65  90 S3        29.89R
$$

NEZ044-045-051>053-067-251400-
OMAHA AREA

CITY           SKY/WX    TMP DP  RH WIND       PRES   REMARKS
OMAHA EPPLEY   PTSUNNY   70  64  81 S8        29.87R
BLAIR          MOSUNNY   67  64  89 S8        29.88S
FREMONT        CLOUDY    70  64  81 S5        29.87S
MILLARD        PTSUNNY   69  65  88 S3        29.88R
OFFUTT AFB     CLOUDY    69  65  85 S5        29.87R
PLATTSMOUTH    MOSUNNY   68  65  90 S3        29.89R
WAHOO          FAIR      69  64  83 S6        29.88S
$$



USA.gov is the U.S. government's official web portal to all federal, state and local government web resources and services.